Dallas/Ft Worth, TX

2:44 PM CST on November 22, 2019 (GMT -0600)
Dallas-Fort Worth International

Weather History for KDFW - September, 2019

Change the Weather History Date:

Sunday, September 29, 2019

  Actual Average Record
Temperature  
Mean Temperature 86 °F 73 °F  
Max Temperature 95 °F 84 °F 101 °F (2011)
Min Temperature 78 °F 62 °F 46 °F (1967)
Degree Days  
Heating Degree Days 0 1  
Month to date heating degree days 0 3  
Since 1 July heating degree days 0 3  
Cooling Degree Days 22 9  
Month to date cooling degree days 603 387  
Year to date cooling degree days 2805 2569  
Growing Degree Days 36 (Base 50)    
Moisture  
Dew Point 69 °F    
Average Humidity 60    
Maximum Humidity 79    
Minimum Humidity 39    
Precipitation  
Precipitation 0.00 in 0.08 in 3.29 in (1980)
Month to date precipitation T 2.48  
Year to date precipitation 27.13 26.59  
Sea Level Pressure  
Sea Level Pressure 29.94 in    
Wind  
Wind Speed 13 mph ()    
Max Wind Speed 23 mph    
Max Gust Speed 29 mph    
Visibility 10.0 miles    
Events      
T = Trace of Precipitation, MM = Missing Value Source: Averaged Metar Reports

Daily Weather History Graph

Daily Weather History Graph

Search for Another Location

Airport or City:

Astronomy

Sep. 29, 2019 Rise Set
Actual Time 7:20 AM CDT 7:15 PM CDT
Civil Twilight 6:56 AM CDT 7:40 PM CDT
Nautical Twilight 6:27 AM CDT 8:08 PM CDT
Astronomical Twilight 5:58 AM CDT 8:37 PM CDT
Moon 8:12 AM CDT (9/29) 8:19 PM CDT (9/29)
Length of Visible Light 12h 44m
Length of Day
11h 54m
New Moon, 1% of the Moon is Illuminated
Sep 29
New Moon
Oct 5
First Quarter
Oct 13
Full
Oct 21
Last Quarter
Oct 27
New

Hourly Weather History & Observations

Time (CDT) Temp. Heat Index Dew Point Humidity Pressure Visibility Wind Dir Wind Speed Gust Speed Precip Events Conditions
12:53 AM 82.0 °F 84.5 °F 66.9 °F 60% 29.90 in 10.0 mi SSE 16.1 mph 24.2 mph N/A   Scattered Clouds
1:53 AM 81.0 °F 83.8 °F 68.0 °F 65% 29.91 in 10.0 mi South 15.0 mph 21.9 mph N/A   Scattered Clouds
2:53 AM 79.0 °F - 69.1 °F 72% 29.92 in 10.0 mi SSE 11.5 mph - N/A   Partly Cloudy
3:53 AM 79.0 °F - 69.1 °F 72% 29.92 in 10.0 mi South 11.5 mph - N/A   Partly Cloudy
4:53 AM 79.0 °F - 70.0 °F 74% 29.93 in 10.0 mi SSE 11.5 mph - N/A   Mostly Cloudy
5:53 AM 79.0 °F - 71.1 °F 77% 29.95 in 10.0 mi SE 10.4 mph - N/A   Mostly Cloudy
6:38 AM 79.0 °F - 72.0 °F 79% 29.98 in 10.0 mi SSE 12.7 mph - N/A   Overcast
6:53 AM 79.0 °F - 72.0 °F 79% 29.96 in 10.0 mi SSE 11.5 mph - N/A   Overcast
7:53 AM 79.0 °F - 72.0 °F 79% 29.97 in 10.0 mi SSE 13.8 mph - N/A   Mostly Cloudy
8:53 AM 80.1 °F 84.2 °F 73.0 °F 79% 29.98 in 10.0 mi SSE 12.7 mph - N/A   Mostly Cloudy
9:53 AM 84.0 °F 89.6 °F 72.0 °F 67% 29.99 in 10.0 mi South 16.1 mph 26.5 mph N/A   Mostly Cloudy
10:53 AM 86.0 °F 92.2 °F 72.0 °F 63% 29.99 in 10.0 mi SSE 19.6 mph 26.5 mph N/A   Scattered Clouds
11:53 AM 87.1 °F 92.8 °F 71.1 °F 59% 29.99 in 10.0 mi SSE 15.0 mph - N/A   Mostly Cloudy
12:53 PM 90.0 °F 96.4 °F 71.1 °F 54% 29.97 in 10.0 mi SSE 15.0 mph - N/A   Mostly Cloudy
1:53 PM 93.0 °F 99.0 °F 70.0 °F 47% 29.93 in 10.0 mi South 19.6 mph 26.5 mph N/A   Mostly Cloudy
2:53 PM 93.9 °F 99.1 °F 69.1 °F 44% 29.90 in 10.0 mi SSE 12.7 mph 23.0 mph N/A   Mostly Cloudy
3:53 PM 95.0 °F 99.0 °F 66.9 °F 40% 29.89 in 10.0 mi SSE 16.1 mph 24.2 mph N/A   Mostly Cloudy
4:53 PM 93.9 °F 97.0 °F 66.0 °F 40% 29.88 in 10.0 mi SSE 16.1 mph 21.9 mph N/A   Mostly Cloudy
5:53 PM 93.0 °F 95.9 °F 66.0 °F 41% 29.88 in 10.0 mi SSE 18.4 mph 25.3 mph N/A   Mostly Cloudy
6:53 PM 91.0 °F 93.0 °F 64.9 °F 42% 29.88 in 10.0 mi SE 12.7 mph - N/A   Partly Cloudy
7:53 PM 88.0 °F 89.6 °F 64.9 °F 46% 29.90 in 10.0 mi SE 15.0 mph - N/A   Scattered Clouds
8:53 PM 87.1 °F 88.3 °F 64.0 °F 46% 29.92 in 10.0 mi SE 13.8 mph - N/A   Partly Cloudy
9:53 PM 84.9 °F 86.6 °F 64.9 °F 51% 29.94 in 10.0 mi SE 20.7 mph 26.5 mph N/A   Partly Cloudy
10:53 PM 82.9 °F 85.4 °F 66.9 °F 58% 29.95 in 10.0 mi SE 16.1 mph 24.2 mph N/A   Partly Cloudy
11:53 PM 82.0 °F 84.1 °F 66.0 °F 58% 29.96 in 10.0 mi SSE 15.0 mph 25.3 mph N/A   Clear